Tiempo cada hora Çayeli

Hoy, 19 Enero, Martes

Tiempo Temperatura Precipitaciones Viento Presión Humedad
00:00 0°C° 1.6 mm 4 mps 763 mmHg 95%
01:00 0°C° 0.9 mm 4 mps 764 mmHg 95%
02:00 0°C° 0.9 mm 3 mps 764 mmHg 94%
03:00 -1°C° 0 mm 4 mps 764 mmHg 93%
04:00 0°C° 0.9 mm 3 mps 764 mmHg 92%
05:00 +1°C° 0.9 mm 2 mps 764 mmHg 91%
06:00 -1°C° 0.9 mm 2 mps 764 mmHg 90%
07:00 +1°C° 0.7 mm 2 mps 764 mmHg 90%
08:00 +1°C° 0.7 mm 2 mps 764 mmHg 90%
09:00 +1°C° 0 mm 3 mps 764 mmHg 90%
10:00 +1°C° 0.5 mm 3 mps 764 mmHg 89%
11:00 +2°C° 0.5 mm 3 mps 764 mmHg 89%
12:00 +2°C° 0.5 mm 3 mps 764 mmHg 88%
13:00 +3°C° 0.3 mm 2 mps 764 mmHg 87%
14:00 +3°C° 0.3 mm 2 mps 763 mmHg 87%
15:00 +3°C° 0.3 mm 2 mps 763 mmHg 86%
16:00 +2°C° 0.1 mm 2 mps 763 mmHg 86%
17:00 +1°C° 0.1 mm 2 mps 764 mmHg 86%
18:00 -1°C° 0.1 mm 2 mps 765 mmHg 86%
19:00 -2°C° 0.1 mm 2 mps 765 mmHg 83%
20:00 -2°C° 0.1 mm 2 mps 765 mmHg 79%
21:00 -2°C° 0.1 mm 3 mps 765 mmHg 76%
22:00 -4°C° 0.1 mm 3 mps 765 mmHg 76%
23:00 -4°C° 0.1 mm 3 mps 765 mmHg 75%

Mañana, 20 Enero, Miércoles

Tiempo Temperatura Precipitaciones Viento Presión Humedad
00:00 -4°C° 0.1 mm 3 mps 766 mmHg 74%
01:00 -4°C° 0.1 mm 3 mps 766 mmHg 75%
02:00 -4°C° 0.1 mm 3 mps 765 mmHg 76%
03:00 -4°C° 0.1 mm 3 mps 765 mmHg 77%
04:00 -4°C° 0.3 mm 3 mps 765 mmHg 79%
05:00 -4°C° 0.3 mm 3 mps 766 mmHg 80%
06:00 -4°C° 0.3 mm 3 mps 766 mmHg 81%
07:00 -2°C° 0.5 mm 3 mps 766 mmHg 84%
08:00 -1°C° 0.5 mm 3 mps 766 mmHg 87%
09:00 -1°C° 0.5 mm 3 mps 766 mmHg 90%
10:00 0°C° 0.5 mm 3 mps 766 mmHg 89%
11:00 +1°C° 0.5 mm 3 mps 766 mmHg 89%
12:00 +2°C° 0.5 mm 3 mps 767 mmHg 88%
13:00 +2°C° 0.6 mm 3 mps 766 mmHg 90%
14:00 +1°C° 0.6 mm 4 mps 766 mmHg 93%
15:00 0°C° 0.6 mm 4 mps 766 mmHg 95%
16:00 0°C° 1.3 mm 4 mps 767 mmHg 95%
17:00 0°C° 1.3 mm 4 mps 768 mmHg 94%
18:00 -1°C° 1.3 mm 4 mps 768 mmHg 94%
19:00 0°C° 0.9 mm 3 mps 769 mmHg 93%
20:00 0°C° 0.9 mm 3 mps 769 mmHg 92%
21:00 0°C° 0.9 mm 3 mps 769 mmHg 91%
22:00 -1°C° 0.3 mm 3 mps 770 mmHg 89%
23:00 -1°C° 0.3 mm 3 mps 770 mmHg 87%

Pasado mañana, 21 Enero, Jueves

Tiempo Temperatura Precipitaciones Viento Presión Humedad
00:00 -1°C° 0.3 mm 3 mps 771 mmHg 85%
01:00 -1°C° 0.1 mm 3 mps 771 mmHg 84%
02:00 -1°C° 0.1 mm 3 mps 771 mmHg 83%
03:00 -1°C° 0.1 mm 3 mps 771 mmHg 82%
04:00 -2°C° 0 mm 3 mps 772 mmHg 80%
05:00 -2°C° 0 mm 3 mps 772 mmHg 77%
06:00 -2°C° 0 mm 3 mps 773 mmHg 75%
07:00 -1°C° 0 mm 2 mps 773 mmHg 74%
08:00 +1°C° 0 mm 2 mps 773 mmHg 74%
09:00 +1°C° 0 mm 2 mps 774 mmHg 73%
10:00 +3°C° 0 mm 2 mps 773 mmHg 73%
11:00 +5°C° 0 mm 1 mps 773 mmHg 73%
12:00 +6°C° 0 mm 1 mps 773 mmHg 73%
13:00 +6°C° 0 mm 1 mps 773 mmHg 74%
14:00 +6°C° 0 mm 1 mps 773 mmHg 74%
15:00 +7°C° 0 mm 1 mps 773 mmHg 75%
16:00 +4°C° 0 mm 2 mps 773 mmHg 72%
17:00 +3°C° 0 mm 2 mps 774 mmHg 70%
18:00 +1°C° 0 mm 3 mps 774 mmHg 67%
19:00 0°C° 0 mm 3 mps 774 mmHg 64%
20:00 0°C° 0 mm 3 mps 775 mmHg 61%
21:00 0°C° 0 mm 3 mps 775 mmHg 58%
22:00 0°C° 0 mm 3 mps 775 mmHg 56%
23:00 +1°C° 0 mm 3 mps 775 mmHg 53%

22 Enero, Viernes

Tiempo Temperatura Precipitaciones Viento Presión Humedad
00:00 +1°C° 0 mm 3 mps 775 mmHg 50%
01:00 +1°C° 0 mm 3 mps 775 mmHg 48%
02:00 +1°C° 0 mm 3 mps 775 mmHg 46%
03:00 +2°C° 0 mm 3 mps 775 mmHg 44%
04:00 +2°C° 0 mm 3 mps 774 mmHg 43%
05:00 +2°C° 0 mm 3 mps 774 mmHg 43%
06:00 +2°C° 0 mm 3 mps 774 mmHg 42%
07:00 +4°C° 0 mm 2 mps 774 mmHg 45%
08:00 +5°C° 0 mm 2 mps 774 mmHg 47%
09:00 +6°C° 0 mm 2 mps 774 mmHg 50%
10:00 +9°C° 0 mm 1 mps 773 mmHg 57%
11:00 +10°C° 0 mm 1 mps 773 mmHg 65%
12:00 +11°C° 0 mm 1 mps 772 mmHg 73%
13:00 +11°C° 0 mm 1 mps 771 mmHg 75%
14:00 +11°C° 0 mm 1 mps 771 mmHg 77%
15:00 +10°C° 0 mm 0 mps 770 mmHg 80%
16:00 +11°C° 0 mm 1 mps 770 mmHg 72%
17:00 +10°C° 0 mm 1 mps 771 mmHg 65%
18:00 +8°C° 0 mm 2 mps 771 mmHg 58%
19:00 +8°C° 0 mm 2 mps 771 mmHg 56%
20:00 +7°C° 0 mm 2 mps 771 mmHg 54%
21:00 +7°C° 0 mm 2 mps 771 mmHg 52%
22:00 +7°C° 0 mm 2 mps 771 mmHg 52%
23:00 +7°C° 0 mm 2 mps 771 mmHg 51%

23 Enero, Sábado

Tiempo Temperatura Precipitaciones Viento Presión Humedad
00:00 +7°C° 0 mm 2 mps 771 mmHg 51%
01:00 +7°C° 0 mm 2 mps 771 mmHg 51%
02:00 +7°C° 0 mm 2 mps 770 mmHg 51%
03:00 +7°C° 0 mm 2 mps 770 mmHg 51%
04:00 +7°C° 0 mm 2 mps 770 mmHg 50%
05:00 +7°C° 0 mm 2 mps 770 mmHg 50%
06:00 +7°C° 0 mm 2 mps 770 mmHg 50%
07:00 +7°C° 0 mm 2 mps 770 mmHg 52%
08:00 +8°C° 0 mm 2 mps 770 mmHg 53%
09:00 +9°C° 0 mm 2 mps 770 mmHg 55%
10:00 +11°C° 0 mm 1 mps 769 mmHg 62%
11:00 +12°C° 0 mm 1 mps 769 mmHg 70%
12:00 +13°C° 0 mm 1 mps 768 mmHg 77%
13:00 +13°C° 0 mm 1 mps 768 mmHg 79%
14:00 +13°C° 0 mm 1 mps 767 mmHg 80%
15:00 +12°C° 0 mm 0 mps 767 mmHg 81%
16:00 +12°C° 0 mm 1 mps 767 mmHg 74%
17:00 +11°C° 0 mm 1 mps 767 mmHg 66%
18:00 +9°C° 0 mm 2 mps 767 mmHg 59%
19:00 +8°C° 0 mm 2 mps 767 mmHg 55%
20:00 +8°C° 0 mm 2 mps 767 mmHg 51%
21:00 +8°C° 0 mm 3 mps 767 mmHg 48%
22:00 +8°C° 0 mm 3 mps 766 mmHg 47%
23:00 +8°C° 0 mm 3 mps 766 mmHg 47%

24 Enero, Domingo

Tiempo Temperatura Precipitaciones Viento Presión Humedad
00:00 +8°C° 0 mm 3 mps 766 mmHg 46%
01:00 +8°C° 0 mm 3 mps 766 mmHg 46%
02:00 +9°C° 0 mm 2 mps 766 mmHg 46%
03:00 +9°C° 0 mm 2 mps 765 mmHg 46%
04:00 +9°C° 0 mm 2 mps 765 mmHg 46%
05:00 +9°C° 0 mm 2 mps 765 mmHg 46%
06:00 +9°C° 0 mm 3 mps 765 mmHg 46%
07:00 +9°C° 0 mm 2 mps 765 mmHg 48%
08:00 +10°C° 0 mm 2 mps 765 mmHg 50%
09:00 +12°C° 0 mm 2 mps 765 mmHg 52%
10:00 +13°C° 0 mm 2 mps 765 mmHg 57%
11:00 +14°C° 0 mm 2 mps 764 mmHg 63%
12:00 +15°C° 0 mm 1 mps 764 mmHg 68%
13:00 +15°C° 0 mm 1 mps 764 mmHg 70%
14:00 +15°C° 0 mm 1 mps 763 mmHg 71%
15:00 +15°C° 0 mm 1 mps 763 mmHg 73%
16:00 +14°C° 0 mm 1 mps 763 mmHg 67%
17:00 +13°C° 0 mm 2 mps 764 mmHg 61%
18:00 +12°C° 0 mm 2 mps 764 mmHg 55%
19:00 +10°C° 0 mm 2 mps 764 mmHg 53%
20:00 +10°C° 0 mm 2 mps 765 mmHg 51%
21:00 +10°C° 0 mm 3 mps 765 mmHg 49%
22:00 +10°C° 0 mm 3 mps 765 mmHg 49%
23:00 +10°C° 0 mm 2 mps 765 mmHg 49%
Mostrar más